Tracking 35275 objects as of 9-Sep-2026
HD Live streaming from Space Station
objects crossing your sky now

STARLINK-36496

Track STARLINK-36496 now!
10-day predictions
STARLINK-36496 is classified as:


NORAD ID: 67329
Int'l Code: 2026-002AA
Launch date: January 4, 2026
Source: United States (US)
Launch site: AIR FORCE EASTERN TEST RANGE (AFETR)
Your satellite tracking list
Your tracking list is empty




NASA's NSSDC Master Catalog

Two Line Element Set (TLE):
1 67329U 26002AA  26252.32417312  .00018386  00000-0  67572-3 0  9993
2 67329  43.0045   8.1737 0001323 267.6536  92.4164 15.27593795 39141
Source of the keplerian elements: AFSPC